Location: Lucerne Valley
(34.4439°N, 116.9669°E)
Time: 12:56:48
(UTC-08:00)

Vanguard 2 Rocket - Visible Passes

Search period start: 11 December 2017 00:00
Search period end: 21 December 2017 00:00
Orbit: 555 x 3326 km, 32.9° (Epoch: 10 December)

Date Brightness Start Highest point End Pass type
(mag) Time Alt. Az. Time Alt. Az. Time Alt. Az.
11 Dec 9.6 01:43:09 10° SSW 01:52:29 32° SE 02:05:01 13° E visible
11 Dec 9.1 03:54:00 10° WSW 04:07:20 69° SSE 04:10:49 60° ESE visible
11 Dec 9.9 06:08:25 10° W 06:16:37 41° W 06:16:37 41° W visible
11 Dec 10.8 09:02:45 10° ESE 09:02:45 10° ESE 09:02:47 10° ESE visible
11 Dec 9.9 11:08:34 31° S 11:08:34 31° S 11:15:29 10° SSE visible
11 Dec 10.4 13:14:23 10° WSW 13:15:36 10° SW 13:16:59 10° SW visible
12 Dec 9.1 02:54:56 10° SW 03:06:22 57° SSE 03:14:39 35° E visible
12 Dec 9.3 05:08:10 10° WSW 05:20:27 70° WSW 05:20:27 70° WSW visible
12 Dec 10.7 07:23:52 10° W 07:26:15 17° W 07:26:15 17° W visible
12 Dec 10.3 10:12:31 23° SSE 10:12:31 23° SSE 10:16:32 10° SE visible
12 Dec 10.2 12:18:20 19° SW 12:18:20 19° SW 12:25:12 10° S visible
13 Dec 9.2 01:56:27 10° SSW 02:06:05 44° SE 02:18:26 17° E visible
13 Dec 9.0 04:08:23 10° WSW 04:21:43 78° SSE 04:24:15 70° ESE visible
13 Dec 10.1 06:23:07 10° W 06:30:03 36° W 06:30:03 36° W visible
13 Dec 10.8 09:16:27 11° SE 09:16:27 11° SE 09:16:50 10° SE visible
13 Dec 10.2 11:22:15 23° SSW 11:22:15 23° SSW 11:28:08 10° S visible
14 Dec 9.0 03:09:06 10° WSW 03:20:31 69° SSE 03:28:01 41° E visible
14 Dec 9.4 05:22:49 10° W 05:33:49 63° W 05:33:49 63° W visible
14 Dec 10.8 07:38:33 10° W 07:39:37 13° W 07:39:37 13° W visible
14 Dec 10.4 10:26:09 20° SSE 10:26:09 20° SSE 10:29:46 10° SSE visible
14 Dec 10.5 12:31:57 11° SW 12:31:57 11° SW 12:33:27 10° SW visible
15 Dec 9.0 02:10:17 10° SW 02:19:59 56° SSE 02:31:48 21° E visible
15 Dec 9.0 04:22:57 10° WSW 04:36:17 84° S 04:37:36 79° ESE visible
15 Dec 10.2 06:37:49 10° W 06:43:24 30° W 06:43:24 30° W visible
15 Dec 10.8 09:30:00 11° SE 09:30:00 11° SE 09:30:28 10° SE visible
15 Dec 10.4 11:35:48 16° SSW 11:35:48 16° SSW 11:39:39 10° S visible
16 Dec 9.1 01:12:00 10° SSW 01:20:05 41° SE 01:33:32 10° E visible
16 Dec 8.9 03:23:31 10° WSW 03:34:56 78° SSE 03:41:22 47° E visible
16 Dec 9.5 05:37:31 10° W 05:47:09 55° W 05:47:09 55° W visible
16 Dec10.908:33:48SE08:33:48SE07:52:58Wvisible
16 Dec 10.6 10:39:36 16° S 10:39:36 16° S 10:42:15 10° S visible
17 Dec 8.8 02:24:30 10° WSW 02:34:11 68° SSE 02:45:07 25° E visible
17 Dec 9.0 04:37:38 10° W 04:50:55 85° S 04:50:55 85° S visible
17 Dec 10.4 06:52:29 10° W 06:56:43 24° W 06:56:43 24° W visible
17 Dec 10.8 09:43:21 10° SSE 09:43:21 10° SSE 09:43:33 10° SSE visible
18 Dec 8.7 01:25:54 10° SW 01:34:03 54° SSE 01:48:22 10° E visible
18 Dec 8.8 03:38:08 10° W 03:49:31 84° S 03:54:42 54° E visible
18 Dec 9.6 05:52:12 10° W 06:00:29 46° W 06:00:29 46° W visible
18 Dec11.008:47:02SE08:47:02SE08:06:18WNWvisible
18 Dec 10.8 10:52:50 11° S 10:52:50 11° S 10:53:32 10° S visible
19 Dec 8.6 02:38:58 10° WSW 02:48:38 78° SSE 02:58:28 29° E visible
19 Dec 9.0 04:52:19 10° W 05:04:17 78° WSW 05:04:17 78° WSW visible
19 Dec 10.5 07:07:12 10° W 07:10:05 19° W 07:10:05 19° W visible
20 Dec 8.5 01:40:10 10° WSW 01:48:18 67° SSE 02:02:17 12° E visible
20 Dec 8.8 03:52:49 10° W 04:04:11 85° S 04:08:05 61° ESE visible
20 Dec 9.8 06:06:54 10° W 06:13:53 39° W 06:13:53 39° W visible
20 Dec11.209:00:02SSE09:00:02SSE08:19:41WNWvisible
